Lubbock, TX

11:52 PM CDT on March 25, 2017 (GMT -0500)
Lubbock International

Weather History for KLBB - January, 2012

Change the Weather History Date:

Sunday, January 15, 2012

  Actual Average Record
Temperature  
Mean Temperature 49 °F 40 °F  
Max Temperature 70 °F 54 °F 80 °F (1911)
Min Temperature 28 °F 26 °F 4 °F (1963)
Degree Days  
Heating Degree Days 16 25  
Month to date heating degree days 353 379  
Since 1 July heating degree days 1762 1777  
Cooling Degree Days 0 0  
Month to date cooling degree days 0 0  
Year to date cooling degree days 0 0  
Moisture  
Dew Point 21 °F    
Average Humidity 37    
Maximum Humidity 63    
Minimum Humidity 11    
Precipitation  
Precipitation 0.00 in 0.02 in 0.97 in (2017)
Month to date precipitation 0.00 0.27  
Year to date precipitation 0.00 0.27  
Snow  
Snow 0.00 in 0.10 in 3.50 in (1917)
Month to date snowfall 0.0 1.2  
Since 1 July snowfall 4.0 4.4  
Snow Depth 0.00 in    
Sea Level Pressure  
Sea Level Pressure 30.01 in    
Wind  
Wind Speed 16 mph (WSW)    
Max Wind Speed 29 mph    
Max Gust Speed 38 mph    
Visibility 10 miles    
Events      
T = Trace of Precipitation, MM = Missing Value Source: NWS Daily Summary

Daily Weather History Graph

Daily Weather History Graph

Search for Another Location

Airport or City:

Trip Planner

Search our weather history database for the weather conditions in past years. The results will help you decide how hot, cold, wet, or windy it might be!

Date:

Astronomy

Jan. 15, 2012 Rise Set
Actual Time 7:51 AM CST 6:01 PM CST
Civil Twilight 7:24 AM CST 6:28 PM CST
Nautical Twilight 6:54 AM CST 6:59 PM CST
Astronomical Twilight 6:24 AM CST 7:29 PM CST
Moon 12:02 AM CST (1/15) 11:34 AM CST (1/15)
Length of Visible Light 11h 03m
Length of Day
10h 09m
Waning Gibbous, 57% of the Moon is Illuminated
Jan 15
Waning Gibbous
Jan 16
Last Quarter
Jan 23
New
Jan 30
First Quarter
Feb 7
Full

Hourly Weather History & Observations

Time (CST) Temp. Windchill Dew Point Humidity Pressure Visibility Wind Dir Wind Speed Gust Speed Precip Events Conditions
12:53 AM 39.0 °F 32.8 °F 14.0 °F 36% 30.14 in 10.0 mi WSW 9.2 mph - N/A   Partly Cloudy
1:53 AM 39.9 °F 32.5 °F 15.1 °F 36% 30.12 in 10.0 mi SW 12.7 mph - N/A   Scattered Clouds
2:53 AM 39.9 °F 33.4 °F 18.0 °F 41% 30.10 in 10.0 mi SW 10.4 mph - N/A   Scattered Clouds
3:53 AM 37.9 °F 30.0 °F 19.0 °F 47% 30.08 in 10.0 mi SW 12.7 mph - N/A   Scattered Clouds
4:53 AM 36.0 °F 28.0 °F 19.0 °F 50% 30.08 in 10.0 mi WSW 11.5 mph - N/A   Mostly Cloudy
5:53 AM 33.1 °F 26.1 °F 19.0 °F 56% 30.10 in 10.0 mi WSW 8.1 mph - N/A   Mostly Cloudy
6:53 AM 28.9 °F 21.1 °F 18.0 °F 64% 30.12 in 10.0 mi West 8.1 mph - N/A   Mostly Cloudy
7:53 AM 28.0 °F 20.0 °F 18.0 °F 66% 30.12 in 10.0 mi WSW 8.1 mph - N/A   Mostly Cloudy
8:53 AM 33.1 °F 26.9 °F 19.9 °F 59% 30.12 in 10.0 mi WSW 6.9 mph - N/A   Scattered Clouds
9:53 AM 43.0 °F 37.2 °F 21.0 °F 42% 30.10 in 10.0 mi SW 10.4 mph - N/A   Partly Cloudy
10:53 AM 51.1 °F - 21.0 °F 31% 30.08 in 10.0 mi SW 13.8 mph - N/A   Scattered Clouds
11:53 AM 60.8 °F - 21.2 °F 22% 30.07 in 10.0 mi SW 18.4 mph 23.0 mph N/A   Scattered Clouds
12:53 PM 66.0 °F - 18.0 °F 16% 29.96 in 10.0 mi SW 20.7 mph 29.9 mph N/A   Scattered Clouds
1:53 PM 68.0 °F - 17.1 °F 14% 29.91 in 10.0 mi WSW 25.3 mph 32.2 mph N/A   Partly Cloudy
2:53 PM 70.0 °F - 12.9 °F 11% 29.88 in 10.0 mi WSW 24.2 mph 33.4 mph N/A   Scattered Clouds
3:53 PM 70.0 °F - 12.9 °F 11% 29.88 in 10.0 mi WSW 26.5 mph 34.5 mph N/A   Scattered Clouds
4:53 PM 68.0 °F - 17.1 °F 14% 29.88 in 10.0 mi WSW 23.0 mph 28.8 mph N/A   Scattered Clouds
5:53 PM 64.0 °F - 23.0 °F 21% 29.89 in 10.0 mi SW 15.0 mph - N/A   Scattered Clouds
6:53 PM 61.0 °F - 26.1 °F 26% 29.93 in 10.0 mi SW 21.9 mph - N/A   Scattered Clouds
7:53 PM 60.1 °F - 27.0 °F 28% 29.94 in 10.0 mi WSW 20.7 mph 25.3 mph N/A   Mostly Cloudy
8:53 PM 59.0 °F - 28.9 °F 32% 29.93 in 10.0 mi WSW 20.7 mph 31.1 mph N/A   Mostly Cloudy
9:53 PM 57.0 °F - 30.9 °F 37% 29.93 in 10.0 mi WSW 21.9 mph 29.9 mph N/A   Mostly Cloudy
10:53 PM 54.0 °F - 32.0 °F 43% 29.92 in 10.0 mi WSW 15.0 mph - N/A   Mostly Cloudy
11:53 PM 51.1 °F - 32.0 °F 48% 29.90 in 10.0 mi WSW 12.7 mph - N/A   Mostly Cloudy